Location: Newark
(35.6799°N, 139.7636°E)
Time: 16:04:00
(UTC+00:00)

Vanguard 1 Rocket - All Passes

Search period start: 14 December 2019 00:00
Search period end: 24 December 2019 00:00
Orbit: 650 x 4226 km, 34.3° (Epoch: 13 December)

Date Brightness Start Highest point End Pass type
(mag) Time Alt. Az. Time Alt. Az. Time Alt. Az.
14 Dec - 07:11:43 10° SSW 07:32:02 31° SE 07:47:29 10° E daylight
14 Dec - 09:39:02 10° SW 10:02:31 60° SSE 10:15:53 10° E visible
14 Dec - 12:12:39 10° WSW 12:31:45 83° S 12:41:02 10° E visible
14 Dec - 14:46:30 10° W 14:58:44 68° SSW 15:05:02 10° ESE visible
14 Dec - 17:18:15 10° W 17:22:49 18° SW 17:26:19 10° S night (unlit)
15 Dec - 06:02:01 10° S 06:18:00 20° SE 06:31:56 10° E daylight
15 Dec - 08:24:48 10° SW 08:48:34 49° SSE 09:04:03 10° E visible
15 Dec - 10:56:29 10° WSW 11:18:46 77° SSE 11:30:12 10° E visible
15 Dec - 13:31:14 10° W 13:47:02 81° S 13:54:45 10° ESE visible
15 Dec - 16:03:48 10° W 16:12:28 37° SW 16:17:39 10° SSE night (unlit)
16 Dec - 05:00:21 10° SE 05:04:07 10° SE 05:07:51 10° ESE daylight
16 Dec - 07:12:02 10° SSW 07:34:22 38° SE 07:51:15 10° E daylight
16 Dec - 09:40:48 10° SW 10:05:10 68° SSE 10:18:59 10° E visible
16 Dec - 12:15:10 10° W 12:34:40 85° S 12:44:10 10° E visible
16 Dec - 14:49:12 10° W 15:01:35 59° SSW 15:08:00 10° SE visible
16 Dec - 17:22:33 10° WSW 17:25:15 12° SW 17:27:33 10° SSW night (unlit)
17 Dec - 06:01:10 10° S 06:20:14 27° SE 06:36:46 10° E daylight
17 Dec - 08:26:08 10° SW 08:51:01 57° SSE 09:07:13 10° E visible
17 Dec - 10:58:48 10° WSW 11:21:35 82° S 11:33:17 10° E visible
17 Dec - 13:33:51 10° W 13:49:58 77° SSW 13:57:50 10° ESE visible
17 Dec - 16:06:51 10° W 16:15:00 29° SW 16:20:08 10° SSE night (unlit)
18 Dec - 04:53:39 10° SSE 05:06:22 16° SE 05:18:39 10° E daylight
18 Dec - 07:12:52 10° SSW 07:36:38 45° SE 07:54:39 10° E visible
18 Dec - 09:42:49 10° WSW 10:07:48 75° SSE 10:22:03 10° E visible
18 Dec - 12:17:44 10° W 12:37:35 85° S 12:47:18 10° E visible
18 Dec - 14:51:55 10° W 15:04:18 50° SSW 15:10:51 10° SE visible
19 Dec - 06:01:15 10° SSW 06:22:19 34° SE 06:40:46 10° E daylight
19 Dec - 08:27:48 10° SW 08:53:28 65° SSE 09:10:17 10° E visible
19 Dec - 11:01:14 10° W 11:24:25 85° S 11:36:23 10° E visible
19 Dec - 13:36:27 10° W 13:52:48 70° SSW 14:00:51 10° ESE visible
19 Dec - 16:10:09 10° W 16:17:24 22° SW 16:22:17 10° S night (unlit)
20 Dec - 04:51:55 10° S 05:08:24 22° SE 05:24:30 10° E daylight
20 Dec - 07:14:08 10° SW 07:38:51 53° SSE 07:57:50 10° E visible
20 Dec - 09:45:02 10° WSW 10:10:29 80° SSE 10:25:05 10° E visible
20 Dec - 12:20:18 10° W 12:40:28 82° S 12:50:23 10° ESE visible
20 Dec - 14:54:41 10° W 15:06:51 42° SW 15:13:31 10° SSE visible
21 Dec - 03:49:10 10° SE 03:54:57 11° SE 04:00:51 10° ESE daylight
21 Dec - 06:01:58 10° SSW 06:24:20 41° SE 06:44:18 10° E daylight
21 Dec - 08:29:44 10° WSW 08:55:56 71° SSE 09:13:18 10° E visible
21 Dec - 11:03:45 10° W 11:27:15 86° S 11:39:28 10° E visible
21 Dec - 13:39:02 10° W 13:55:32 62° SSW 14:03:47 10° SE visible
21 Dec - 16:13:55 10° W 16:19:39 16° SW 16:23:54 10° SSW night (unlit)
22 Dec - 04:51:39 10° S 05:10:17 28° SE 05:28:59 10° E daylight
22 Dec - 07:15:44 10° SW 07:41:04 60° SSE 08:00:52 10° ENE visible
22 Dec - 09:47:24 10° WSW 10:13:11 84° S 10:28:08 10° E visible
22 Dec - 12:22:51 10° W 12:43:18 78° SSW 12:53:25 10° ESE visible
22 Dec - 14:57:34 10° W 15:09:15 34° SW 15:15:58 10° SSE visible
23 Dec - 03:44:29 10° SSE 03:56:52 17° SE 04:10:00 10° E daylight
23 Dec - 06:03:09 10° SSW 06:26:19 48° SE 06:47:31 10° ENE daylight
23 Dec - 08:31:54 10° WSW 08:58:26 77° SSE 09:16:17 10° E visible
23 Dec - 11:06:18 10° W 11:30:04 85° S 11:42:32 10° E visible
23 Dec - 13:41:38 10° WNW 13:58:07 54° SSW 14:06:34 10° SE visible
23 Dec - 16:18:57 10° WSW 16:21:48 11° SW 16:24:15 10° SW night (unlit)
